Location: Caltech
(34.1382°N, 118.1253°W)
Time: 16:25:38
(UTC-07:00)

A-11 Canister half - All Passes

Search period start: 20 October 2017 00:00
Search period end: 30 October 2017 00:00
Orbit: 1515 x 1685 km, 47.2° (Epoch: 19 October)

Date Brightness Start Highest point End Pass type
(mag) Time Alt. Az. Time Alt. Az. Time Alt. Az.
20 Oct - 07:14:08 10° SSW 07:23:14 40° SE 07:32:05 10° ENE daylight
20 Oct - 09:17:55 10° WSW 09:27:52 71° NNW 09:37:29 10° NE daylight
20 Oct - 11:25:16 10° WNW 11:34:13 39° N 11:42:53 10° ENE daylight
20 Oct - 13:32:13 10° NW 13:41:13 44° NNE 13:49:58 10° E daylight
20 Oct - 15:37:28 10° NW 15:46:54 85° SW 15:56:08 10° SE daylight
20 Oct - 17:44:01 10° WNW 17:50:47 23° SW 17:57:33 10° S daylight
21 Oct - 06:51:25 10° SSW 07:00:21 38° SE 07:09:04 10° ENE daylight
21 Oct - 08:54:56 10° WSW 09:04:55 75° NNW 09:14:35 10° NE daylight
21 Oct - 11:02:10 10° WNW 11:11:11 39° N 11:19:56 10° ENE daylight
21 Oct - 13:09:14 10° NW 13:18:13 43° NNE 13:26:57 10° E daylight
21 Oct - 15:14:32 10° NW 15:24:01 89° SSW 15:33:16 10° SE daylight
21 Oct - 17:20:52 10° WNW 17:27:58 25° SW 17:35:04 10° S daylight
22 Oct - 06:28:43 10° S 06:37:29 35° SE 06:46:03 10° ENE visible
22 Oct - 08:31:55 10° WSW 08:41:58 78° NW 08:51:41 10° NE daylight
22 Oct - 10:39:03 10° W 10:48:09 40° NNW 10:56:58 10° ENE daylight
22 Oct - 12:46:14 10° NW 12:55:12 42° NNE 13:03:55 10° E daylight
22 Oct - 14:51:36 10° NW 15:01:06 86° NE 15:10:22 10° SE daylight
22 Oct - 16:57:44 10° WNW 17:05:09 28° SW 17:12:31 10° S daylight
23 Oct - 06:06:03 10° S 06:14:37 33° SE 06:22:58 10° ENE visible
23 Oct - 08:08:56 10° WSW 08:19:01 82° NW 08:28:46 10° NE daylight
23 Oct - 10:15:57 10° W 10:25:07 41° NNW 10:34:00 10° NE daylight
23 Oct - 12:23:13 10° NW 12:32:11 41° NNE 12:40:53 10° E daylight
23 Oct - 14:28:40 10° NW 14:38:12 82° NE 14:47:28 10° ESE daylight
23 Oct - 16:34:39 10° WNW 16:42:20 30° SW 16:49:57 10° S daylight
24 Oct - 05:43:25 10° S 05:51:45 30° SE 05:59:54 10° ENE visible
24 Oct - 07:45:58 10° SW 07:56:04 86° NW 08:05:52 10° NE daylight
24 Oct - 09:52:50 10° W 10:02:05 42° NNW 10:11:03 10° NE daylight
24 Oct - 12:00:13 10° WNW 12:09:10 40° N 12:17:50 10° E daylight
24 Oct - 14:05:44 10° NW 14:15:17 79° NE 14:24:33 10° ESE daylight
24 Oct - 16:11:34 10° WNW 16:19:30 32° SW 16:27:22 10° S daylight
25 Oct - 05:20:47 10° S 05:28:53 28° SE 05:36:48 10° ENE visible
25 Oct - 07:22:59 10° SW 07:33:08 90° NNW 07:42:57 10° NE daylight
25 Oct - 09:29:44 10° W 09:39:04 43° NNW 09:48:06 10° NE daylight
25 Oct - 11:37:11 10° WNW 11:46:09 39° N 11:54:49 10° ENE daylight
25 Oct - 13:42:47 10° NW 13:52:21 75° NNE 14:01:37 10° ESE daylight
25 Oct - 15:48:30 10° WNW 15:56:41 35° SW 16:04:44 10° S daylight
26 Oct - 04:58:14 10° S 05:06:01 26° SE 05:13:41 10° ENE visible
26 Oct - 07:00:03 10° SW 07:10:11 86° SE 07:20:02 10° NE daylight
26 Oct - 09:06:38 10° W 09:16:02 45° NNW 09:25:10 10° NE daylight
26 Oct - 11:14:09 10° WNW 11:23:07 39° N 11:31:47 10° ENE daylight
26 Oct - 13:19:51 10° NW 13:29:25 71° NNE 13:38:41 10° ESE daylight
26 Oct - 15:25:28 10° WNW 15:33:51 38° SW 15:42:06 10° SSE daylight
27 Oct - 04:35:42 10° S 04:43:10 24° SE 04:50:31 10° ENE visible
27 Oct - 06:37:06 10° SW 06:47:15 82° SE 06:57:07 10° NE visible
27 Oct - 08:43:31 10° W 08:53:01 46° NNW 09:02:13 10° NE daylight
27 Oct - 10:51:06 10° WNW 11:00:05 38° N 11:08:45 10° ENE daylight
27 Oct - 12:56:54 10° NW 13:06:29 68° NNE 13:15:44 10° ESE daylight
27 Oct - 15:02:26 10° WNW 15:11:01 41° SW 15:19:25 10° SSE daylight
28 Oct - 04:13:13 10° S 04:20:18 22° SE 04:27:18 10° E visible
28 Oct - 06:14:11 10° SW 06:24:19 78° SE 06:34:11 10° NE visible
28 Oct - 08:20:25 10° W 08:30:00 47° NNW 08:39:17 10° NE daylight
28 Oct - 10:28:03 10° WNW 10:37:02 38° N 10:45:43 10° ENE daylight
28 Oct - 12:33:57 10° NW 12:43:32 65° NNE 12:52:47 10° ESE daylight
28 Oct - 14:39:25 10° WNW 14:48:10 44° SW 14:56:44 10° SSE daylight
29 Oct - 03:50:47 10° SSE 03:57:28 20° SE 04:04:03 10° E visible
29 Oct - 05:51:18 10° SW 06:01:23 74° SE 06:11:15 10° ENE visible
29 Oct - 07:57:19 10° W 08:06:58 49° NNW 08:16:21 10° NE daylight
29 Oct - 10:05:00 10° WNW 10:13:59 38° N 10:22:41 10° ENE daylight
29 Oct - 12:11:00 10° NW 12:20:35 62° NNE 12:29:49 10° ESE daylight
29 Oct - 14:16:25 10° WNW 14:25:19 47° SW 14:34:01 10° SSE daylight
